This is the latest recevied weather packets stored in our database for station/object VU3HGG-WX. If no packets are shown the sender has not sent any weather packets the latest 10 day(s).
| Time | Temp. | Humidity | Pressure | Rain* | Wind** | Luminosity | Snow |
|---|---|---|---|---|---|---|---|
| 1787897824 | 26.11° C | 64% | 910.6 hPa | - | - | - | - |
| 1787897224 | 26.11° C | 64% | 910.9 hPa | - | - | - | - |
| 1787896624 | 26.11° C | 65% | 910.9 hPa | - | - | - | - |
| 1787896024 | 25.56° C | 67% | 911.2 hPa | - | - | - | - |
| 1787895424 | 26.11° C | 64% | 911.1 hPa | - | - | - | - |
| 1787895376 | 26.11° C | 64% | 911.1 hPa | - | - | - | - |
| 1787895318 | 25.56° C | 65% | 911.1 hPa | - | - | - | - |
| 1787894810 | 26.11° C | 64% | 911.1 hPa | - | - | - | - |
| 1787894732 | 26.11° C | 64% | 911.2 hPa | - | - | - | - |
| 1787894662 | 26.11° C | 64% | 911.1 hPa | - | - | - | - |
| 1787894288 | 26.11° C | 68% | 911.1 hPa | - | - | - | - |
| 1787893614 | 25.56° C | 69% | 911.1 hPa | - | - | - | - |
| 1787893014 | 26.11° C | 69% | 911.2 hPa | - | - | - | - |
| 1787892414 | 26.11° C | 69% | 911.2 hPa | - | - | - | - |
| 1787891815 | 25.56° C | 70% | 911.3 hPa | - | - | - | - |
| 1787891214 | 25.56° C | 71% | 911.3 hPa | - | - | - | - |
| 1787890614 | 26.11° C | 70% | 911.3 hPa | - | - | - | - |
| 1787890015 | 25.56° C | 72% | 911.3 hPa | - | - | - | - |
| 1787889415 | 25° C | 74% | 911.5 hPa | - | - | - | - |
| 1787888814 | 25.56° C | 71% | 911.5 hPa | - | - | - | - |
| 1787888214 | 25.56° C | 71% | 911.5 hPa | - | - | - | - |
| 1787887614 | 25.56° C | 70% | 911.5 hPa | - | - | - | - |
| 1787887014 | 25.56° C | 71% | 911.4 hPa | - | - | - | - |
| 1787886414 | 26.11° C | 69% | 911.3 hPa | - | - | - | - |
| 1787885814 | 25.56° C | 71% | 911.3 hPa | - | - | - | - |
* Rain since midnight (hover to see other rain measurements)
** Current wind speed in m/s (hover to see current wind gust speed)